Showing default

EXPRESS 80, 45986

Orbit data source: Space-Track

EXPRESS 80, 45986 is a payload satellite owned by KosSvyaz (CIS) in GEO that was launched on Thu, 30 Jul 2020 UTC via a PROTON-M/BRIZ-M launch vehicle from the Tyuratam Missile And Space Complex (TTMTR). Payload-class satellites include a variety of spacecraft equipped with specific instruments for various scientific and technological missions. These include communications satellites like Starlink; space stations such as the ISS; scientific satellites like the Hubble; Earth observation satellites from companies like Planet Labs, Umbra, and HawkEye 360; GPS; miniature CubeSats for education and research; and military/defense satellites.

Not visible in the next 10 days
Identifier
45986, 2020-053B
Orbit
GEO
Country
Flag of CISCIS
Related business
Manufacturer
Resehetnev ISS
Mission
Operational Commercial Communications
Bus & Motor
EKSPRESS-1000N, AOCS
Mass
2,110 kg wet, ~1,800 kg dry
Launch date (UTC)
2020-07-30 (6 years ago)
Launch vehicle
PROTON-M/BRIZ-M
Launch site
Tyuratam Missile And Space Complex (TTMTR)
Object type
Payload
Rocket body
Debris
Shape & HBR
Box + 2 Pan, 2.4 m
Radar Cross Section
16.987 m², Large (>1 m²)

Expand to show TLE details & history
Last TLE update: 15 hours ago

TLE from 15 hours ago
0 EXPRESS 80
1 45986U 20053B   26263.15064726 -.00000172  00000-0  00000+0 0  9992
2 45986   0.0242 175.9861 0070018  61.1971 256.3982  1.00401241 22596
Epoch: 2026-09-20T03:36Z
TLE epoch observation values (Epoch: 2026-09-20T03:36:55.923Z)
Latitude
-0.02777°
Longitude
79.51149°
Altitude
35,820.161 km
Speed
3.071 km/s
True Right ascension
08h 51m 10s
True Declination
0° 01' 40"
Sunlit
Object was in daylight at epoch
Visualization orbit readout
Latitude
Unknown
Longitude
Unknown
Altitude
Unknown
Speed
Unknown
Apparent Right ascension
Unknown
Apparent Declination
Unknown
Sunlit
N/A
Visualization observer readout
Local Sidereal Time
11:18:41
Azimuth
Unknown
Elevation
Unknown
Doppler factor
Unknown
Orbital elements
Apogee altitude
36,046.397 km
Perigee altitude
35,456.431 km
Semi-major axis
42,129.551 km
Eccentricity
0.007
Inclination
0.0242°
RAAN
175.9861°
Arg. of periapsis
61.1971°
True anomaly
255.61998°
Mean anomaly
256.3982°
Eccentric anomaly
256.00893°
Mean motion
0.25099 °/min
Orbital period
1,434.3 mins
BSTAR
0
Loading maneuver chart data...
Computing Atmospheric mass density...
Loading historical data...
Loading historical data...
Loading historical data...
Loading historical data...
Loading historical data...
Loading historical data...
Loading historical data...
Other satellites on launch #53 in the year 2020 (2020-07-30 UTC)

Documentation

Showing up to 5 results
|